Location: Kellogg
(38.0159°N, 90.0546°W)
Time: 01:59:24
(UTC+00:00)

Vanguard 2 - Pass Details

Date: 20 September 2024
Orbit: 552 x 2910 km, 32.9° (Epoch: 15 October)

Event Time Altitude Azimuth Distance (km) Brightness Sun altitude
Rises 07:43:27 0° 234° (SW) 2,708 - -43.6°
Reaches altitude 10° 07:45:46 10° 222° (SW) 1,827 - -43.3°
Maximum altitude 07:49:15 29° 161° (SSE) 1,107 - -42.9°
Drops below altitude 10° 07:53:28 10° 100° (E) 2,223 - -42.3°
Exits shadow 07:54:43 - 95° (E) 2,698 10.7 -42.1°
Sets 07:56:35 0° 90° (E) 3,431 11.3 -41.9°
